Location: Starlight Observatory
(38.4029°N, 85.8936°W)
Time: 15:19:06
(UTC-05:00)

Iridium 84 - Visible Passes

Search period start: 22 January 2017 00:00
Search period end: 01 February 2017 00:00
Orbit: 776 x 779 km, 86.4° (Epoch: 22 January)

Date Brightness Start Highest point End Pass type
(mag) Time Alt. Az. Time Alt. Az. Time Alt. Az.
22 Jan 7.7 06:49:00 10° NNE 06:53:24 27° E 06:57:47 10° SE visible
22 Jan 5.5 19:43:34 10° SSE 19:48:40 59° E 19:50:56 32° NNE visible
22 Jan 8.2 21:26:58 10° WSW 21:29:48 15° WNW 21:31:37 12° NW visible
23 Jan 8.4 06:16:45 10° NE 06:19:35 15° ENE 06:22:25 10° ESE visible
23 Jan 6.2 19:10:45 10° SE 19:15:18 31° E 19:19:51 10° NNE visible
23 Jan 7.4 20:51:37 10° SW 20:55:58 27° W 21:00:21 10° NNW visible
24 Jan 5.9 07:21:59 10° N 07:27:13 74° E 07:32:25 10° S visible
24 Jan 6.9 18:38:47 10° ESE 18:42:03 17° E 18:45:19 10° NE visible
24 Jan 6.3 20:17:15 10° SSW 20:22:17 50° W 20:27:21 10° N visible
25 Jan 7.1 06:48:44 10° NNE 06:53:37 39° E 06:58:28 10° SSE visible
25 Jan 5.4 19:43:31 10° S 19:48:43 87° E 19:53:58 10° N visible
26 Jan 8.1 06:15:56 10° NNE 06:19:53 21° ENE 06:23:48 10° SE visible
26 Jan 5.7 19:10:21 10° SSE 19:15:18 46° E 19:20:15 10° NNE visible
26 Jan 8.0 20:52:39 10° WSW 20:56:13 19° WNW 20:59:51 10° NNW visible
27 Jan 8.7 05:44:29 10° NE 05:46:00 11° ENE 05:47:31 10° E visible
27 Jan 5.5 07:22:05 10° N 07:27:19 76° W 07:32:31 10° S visible
27 Jan 6.5 18:37:49 10° SE 18:41:58 25° E 18:46:08 10° NNE visible
27 Jan 7.1 20:17:46 10° SSW 20:22:28 34° W 20:27:12 10° NNW visible
28 Jan 6.3 06:48:38 10° N 06:53:47 57° E 06:58:54 10° SSE visible
28 Jan 5.9 19:43:41 10° SSW 19:48:50 64° W 19:54:01 10° N visible
29 Jan 7.5 06:15:32 10° NNE 06:20:08 31° E 06:24:42 10° SE visible
29 Jan 5.4 19:10:10 10° S 19:15:19 68° E 19:20:31 10° N visible
29 Jan 8.5 20:54:20 10° W 20:56:33 13° WNW 20:58:46 10° NW visible
30 Jan 8.4 05:43:02 10° NE 05:46:20 17° ENE 05:49:38 10° ESE visible
30 Jan 5.7 07:22:19 10° NNW 07:27:22 51° W 07:32:24 10° SSW visible
30 Jan 6.1 18:37:14 10° SSE 18:41:56 36° E 18:46:39 10° NNE visible
30 Jan 7.8 20:18:34 10° SW 20:22:42 24° W 20:26:51 10° NNW visible
31 Jan 5.6 06:48:39 10° N 06:53:54 84° E 06:59:07 10° S visible
31 Jan 6.7 19:44:03 10° SSW 19:48:59 43° W 19:53:58 10° NNW visible
